| time (UTC) | temp C | wind direction | speed KPH | gust KPH | rain 1hr cm | rain 24hr cm | rain mn cm | humidity % | barometer mb |
| 20260508115307 | 9 | 225 | 0.0 | 0.0 | 0.00 | 0.00 | 0.00 | 82 | 1009.3 |
| 20260508114802 | 9 | 233 | 0.0 | 0.0 | 0.00 | 0.00 | 0.00 | 82 | 1009.3 |
| 20260508114259 | 9 | 226 | 0.0 | 0.0 | 0.00 | 0.00 | 0.00 | 81 | 1009.0 |
| 20260508113755 | 9 | 206 | 0.0 | 1.6 | 0.00 | 0.00 | 0.00 | 80 | 1009.0 |
| 20260508113254 | 9 | 237 | 1.6 | 1.6 | 0.00 | 0.00 | 0.00 | 80 | 1008.7 |
| 20260508112750 | 9 | 221 | 0.0 | 1.6 | 0.00 | 0.00 | 0.00 | 80 | 1009.3 |
| 20260508112247 | 9 | 226 | 0.0 | 0.0 | 0.00 | 0.00 | 0.00 | 80 | 1009.6 |
| 20260508111743 | 8 | 228 | 1.6 | 1.6 | 0.00 | 0.00 | 0.00 | 80 | 1009.5 |
| 20260508111241 | 8 | 221 | 1.6 | 1.6 | 0.00 | 0.00 | 0.00 | 80 | 1009.3 |
| 20260508110738 | 8 | 227 | 1.6 | 1.6 | 0.00 | 0.00 | 0.00 | 80 | 1009.1 |
| 20260508110236 | 8 | 212 | 1.6 | 1.6 | 0.00 | 0.00 | 0.00 | 81 | 1008.9 |
| 20260508105736 | 8 | 215 | 0.0 | 0.0 | 0.00 | 0.00 | 0.00 | 82 | 1008.8 |
| 20260508105233 | 8 | 215 | 1.6 | 1.6 | 0.00 | 0.00 | 0.00 | 82 | 1008.9 |
| 20260508104730 | 8 | 214 | 1.6 | 1.6 | 0.00 | 0.00 | 0.00 | 82 | 1008.9 |
| 20260508104227 | 8 | 207 | 1.6 | 1.6 | 0.00 | 0.00 | 0.00 | 83 | 1009.1 |
| 20260508103724 | 8 | 210 | 1.6 | 1.6 | 0.00 | 0.00 | 0.00 | 84 | 1008.8 |
| 20260508103221 | 7 | 215 | 3.2 | 4.8 | 0.00 | 0.00 | 0.00 | 84 | 1008.9 |
| 20260508102718 | 7 | 225 | 0.0 | 3.2 | 0.00 | 0.00 | 0.00 | 85 | 1008.8 |
| 20260508102216 | 7 | 209 | 1.6 | 3.2 | 0.00 | 0.00 | 0.00 | 86 | 1009.0 |
| 20260508101713 | 7 | 212 | 1.6 | 1.6 | 0.00 | 0.00 | 0.00 | 86 | 1009.1 |
| 20260508101211 | 7 | 207 | 0.0 | 1.6 | 0.00 | 0.00 | 0.00 | 87 | 1009.1 |
| 20260508100708 | 7 | 185 | 3.2 | 3.2 | 0.00 | 0.00 | 0.00 | 87 | 1009.0 |
| 20260508100206 | 7 | 216 | 0.0 | 0.0 | 0.00 | 0.00 | 0.00 | 87 | 1009.1 |
| 20260508095702 | 7 | 215 | 0.0 | 1.6 | 0.00 | 0.00 | 0.00 | 88 | 1008.8 |
| 20260508095159 | 7 | 212 | 1.6 | 1.6 | 0.00 | 0.00 | 0.00 | 87 | 1009.0 |
| 20260508094656 | 7 | 211 | 0.0 | 0.0 | 0.00 | 0.00 | 0.00 | 87 | 1008.9 |
| 20260508094153 | 7 | 212 | 1.6 | 1.6 | 0.00 | 0.00 | 0.00 | 86 | 1009.1 |
| 20260508093650 | 7 | 212 | 1.6 | 1.6 | 0.00 | 0.00 | 0.00 | 85 | 1008.7 |
| 20260508093148 | 7 | 214 | 0.0 | 0.0 | 0.00 | 0.00 | 0.00 | 85 | 1009.0 |
| 20260508092645 | 7 | 212 | 1.6 | 1.6 | 0.00 | 0.00 | 0.00 | 85 | 1008.9 |
| 20260508092143 | 7 | 209 | 1.6 | 1.6 | 0.00 | 0.00 | 0.00 | 84 | 1009.1 |
| 20260508091640 | 7 | 218 | 1.6 | 1.6 | 0.00 | 0.00 | 0.00 | 84 | 1009.3 |
| 20260508091137 | 7 | 217 | 4.8 | 4.8 | 0.00 | 0.00 | 0.00 | 83 | 1009.1 |
| 20260508090635 | 8 | 206 | 1.6 | 1.6 | 0.00 | 0.00 | 0.00 | 83 | 1009.4 |
| 20260508090132 | 8 | 214 | 0.0 | 1.6 | 0.00 | 0.00 | 0.00 | 83 | 1009.1 |
| 20260508085628 | 8 | 223 | 1.6 | 1.6 | 0.00 | 0.00 | 0.00 | 84 | 1009.1 |
| 20260508085126 | 8 | 220 | 1.6 | 1.6 | 0.00 | 0.00 | 0.00 | 83 | 1009.0 |
| 20260508084622 | 7 | 227 | 1.6 | 1.6 | 0.00 | 0.00 | 0.00 | 83 | 1009.2 |
| 20260508084119 | 7 | 217 | 0.0 | 1.6 | 0.00 | 0.00 | 0.00 | 83 | 1009.3 |
| 20260508083616 | 7 | 202 | 4.8 | 8.0 | 0.00 | 0.00 | 0.00 | 83 | 1009.2 |
| 20260508083114 | 7 | 214 | 1.6 | 1.6 | 0.00 | 0.00 | 0.00 | 83 | 1008.9 |
| 20260508082609 | 8 | 214 | 1.6 | 1.6 | 0.00 | 0.00 | 0.00 | 82 | 1009.2 |
| 20260508082107 | 8 | 219 | 0.0 | 0.0 | 0.00 | 0.00 | 0.00 | 82 | 1009.3 |
| 20260508081604 | 7 | 215 | 1.6 | 1.6 | 0.00 | 0.00 | 0.00 | 82 | 1009.1 |
| 20260508081100 | 7 | 207 | 3.2 | 4.8 | 0.00 | 0.00 | 0.00 | 82 | 1009.3 |
| 20260508080558 | 8 | 207 | 1.6 | 1.6 | 0.00 | 0.00 | 0.00 | 80 | 1009.1 |
| 20260508080055 | 8 | 211 | 1.6 | 1.6 | 0.00 | 0.00 | 0.00 | 80 | 1009.2 |
| 20260508075551 | 8 | 215 | 1.6 | 3.2 | 0.00 | 0.00 | 0.00 | 80 | 1009.0 |
| 20260508075049 | 8 | 214 | 1.6 | 1.6 | 0.00 | 0.00 | 0.00 | 79 | 1009.1 |
| 20260508074547 | 8 | 215 | 4.8 | 8.0 | 0.00 | 0.00 | 0.00 | 78 | 1009.5 |
| 20260508074043 | 8 | 251 | 4.8 | 4.8 | 0.00 | 0.00 | 0.00 | 78 | 1009.3 |
| 20260508073540 | 8 | 196 | 1.6 | 3.2 | 0.00 | 0.00 | 0.00 | 77 | 1009.3 |
| 20260508073038 | 8 | 218 | 0.0 | 0.0 | 0.00 | 0.00 | 0.00 | 76 | 1009.3 |
| 20260508072533 | 8 | 232 | 4.8 | 4.8 | 0.00 | 0.00 | 0.00 | 76 | 1009.3 |
| 20260508072031 | 8 | 215 | 4.8 | 8.0 | 0.00 | 0.00 | 0.00 | 75 | 1009.2 |
| 20260508071529 | 8 | 212 | 6.4 | 8.0 | 0.00 | 0.00 | 0.00 | 74 | 1009.2 |
| 20260508071026 | 8 | 225 | 8.0 | 11.3 | 0.00 | 0.00 | 0.00 | 74 | 1009.4 |
| 20260508070524 | 8 | 225 | 3.2 | 3.2 | 0.00 | 0.00 | 0.00 | 74 | 1009.2 |
| 20260508070022 | 8 | 192 | 3.2 | 3.2 | 0.00 | 0.00 | 0.00 | 73 | 1009.1 |
| 20260508065519 | 8 | 219 | 1.6 | 1.6 | 0.00 | 0.00 | 0.00 | 73 | 1009.3 |
| 20260508065018 | 8 | 218 | 1.6 | 3.2 | 0.00 | 0.00 | 0.00 | 74 | 1009.3 |
| 20260508064515 | 8 | 204 | 1.6 | 1.6 | 0.00 | 0.00 | 0.00 | 74 | 1009.1 |
| 20260508064012 | 8 | 211 | 1.6 | 1.6 | 0.00 | 0.00 | 0.00 | 74 | 1009.3 |
| 20260508063510 | 8 | 203 | 1.6 | 3.2 | 0.00 | 0.00 | 0.00 | 74 | 1009.4 |
| 20260508063007 | 8 | 215 | 0.0 | 1.6 | 0.00 | 0.00 | 0.00 | 74 | 1009.1 |
| 20260508062505 | 8 | 228 | 1.6 | 3.2 | 0.00 | 0.00 | 0.00 | 74 | 1009.2 |
| 20260508062001 | 8 | 216 | 1.6 | 1.6 | 0.00 | 0.00 | 0.00 | 73 | 1009.3 |
| 20260508061500 | 8 | 211 | 1.6 | 3.2 | 0.00 | 0.00 | 0.00 | 73 | 1009.4 |
| 20260508060955 | 8 | 209 | 1.6 | 1.6 | 0.00 | 0.00 | 0.00 | 74 | 1009.4 |
| 20260508060453 | 8 | 221 | 1.6 | 1.6 | 0.00 | 0.00 | 0.00 | 73 | 1009.3 |
| 20260508055949 | 8 | 215 | 0.0 | 0.0 | 0.00 | 0.00 | 0.00 | 74 | 1009.4 |
| 20260508055446 | 8 | 204 | 1.6 | 1.6 | 0.00 | 0.00 | 0.00 | 73 | 1009.3 |
| 20260508054942 | 8 | 216 | 0.0 | 1.6 | 0.00 | 0.00 | 0.00 | 74 | 1009.6 |
| 20260508054439 | 8 | 205 | 1.6 | 1.6 | 0.00 | 0.00 | 0.00 | 74 | 1009.4 |
| 20260508053936 | 8 | 213 | 0.0 | 0.0 | 0.00 | 0.00 | 0.00 | 74 | 1009.5 |
| 20260508053433 | 8 | 207 | 1.6 | 1.6 | 0.00 | 0.00 | 0.00 | 73 | 1009.7 |
| 20260508052931 | 8 | 211 | 1.6 | 1.6 | 0.00 | 0.00 | 0.00 | 72 | 1009.7 |
| 20260508052428 | 8 | 211 | 1.6 | 1.6 | 0.00 | 0.00 | 0.00 | 72 | 1009.5 |
| 20260508051924 | 8 | 218 | 0.0 | 1.6 | 0.00 | 0.00 | 0.00 | 71 | 1009.7 |
| 20260508051420 | 8 | 202 | 1.6 | 3.2 | 0.00 | 0.00 | 0.00 | 72 | 1009.7 |
| 20260508050916 | 8 | 188 | 1.6 | 3.2 | 0.00 | 0.00 | 0.00 | 72 | 1009.6 |
| 20260508050413 | 8 | 209 | 1.6 | 1.6 | 0.00 | 0.00 | 0.00 | 72 | 1009.7 |
| 20260508045909 | 8 | 209 | 1.6 | 1.6 | 0.00 | 0.00 | 0.00 | 72 | 1009.8 |
| 20260508045407 | 8 | 208 | 0.0 | 1.6 | 0.00 | 0.00 | 0.00 | 71 | 1009.6 |
| 20260508044905 | 8 | 209 | 0.0 | 1.6 | 0.00 | 0.00 | 0.00 | 70 | 1009.8 |
| 20260508044401 | 8 | 205 | 0.0 | 1.6 | 0.00 | 0.00 | 0.00 | 68 | 1009.8 |
| 20260508043857 | 9 | 217 | 1.6 | 1.6 | 0.00 | 0.00 | 0.00 | 68 | 1009.8 |
| 20260508043354 | 9 | 184 | 1.6 | 3.2 | 0.00 | 0.00 | 0.00 | 68 | 1009.8 |
| 20260508042850 | 9 | 251 | 3.2 | 4.8 | 0.00 | 0.00 | 0.00 | 67 | 1009.9 |
| 20260508042348 | 9 | 206 | 1.6 | 1.6 | 0.00 | 0.00 | 0.00 | 67 | 1009.8 |
| 20260508041845 | 9 | 207 | 1.6 | 3.2 | 0.00 | 0.00 | 0.00 | 68 | 1009.5 |
| 20260508041341 | 9 | 209 | 4.8 | 8.0 | 0.00 | 0.00 | 0.00 | 67 | 1009.6 |
| 20260508040838 | 9 | 212 | 1.6 | 3.2 | 0.00 | 0.00 | 0.00 | 67 | 1009.6 |
| 20260508040336 | 9 | 211 | 3.2 | 3.2 | 0.00 | 0.00 | 0.00 | 67 | 1009.6 |
| 20260508035833 | 8 | 213 | 3.2 | 3.2 | 0.00 | 0.00 | 0.00 | 68 | 1009.6 |
| 20260508035330 | 8 | 209 | 1.6 | 1.6 | 0.00 | 0.00 | 0.00 | 68 | 1009.7 |
| 20260508034827 | 8 | 217 | 3.2 | 3.2 | 0.00 | 0.00 | 0.00 | 67 | 1009.5 |
| 20260508034324 | 8 | 219 | 4.8 | 4.8 | 0.00 | 0.00 | 0.00 | 67 | 1009.7 |
| 20260508033820 | 8 | 219 | 1.6 | 1.6 | 0.00 | 0.00 | 0.00 | 67 | 1009.6 |
| 20260508033319 | 8 | 186 | 4.8 | 4.8 | 0.00 | 0.00 | 0.00 | 66 | 1009.7 |
| 20260508032816 | 8 | 200 | 1.6 | 1.6 | 0.00 | 0.00 | 0.00 | 67 | 1009.8 |
| 20260508032314 | 8 | 204 | 1.6 | 1.6 | 0.00 | 0.00 | 0.00 | 70 | 1009.5 |
| 20260508031810 | 7 | 210 | 0.0 | 1.6 | 0.00 | 0.00 | 0.00 | 69 | 1009.8 |
| 20260508031307 | 7 | 211 | 1.6 | 1.6 | 0.00 | 0.00 | 0.00 | 68 | 1009.7 |
| 20260508030803 | 7 | 201 | 1.6 | 1.6 | 0.00 | 0.00 | 0.00 | 69 | 1009.8 |
| 20260508030301 | 7 | 207 | 1.6 | 1.6 | 0.00 | 0.00 | 0.00 | 70 | 1009.8 |
| 20260508025757 | 7 | 189 | 3.2 | 3.2 | 0.00 | 0.00 | 0.00 | 73 | 1009.9 |
| 20260508025254 | 6 | 200 | 1.6 | 3.2 | 0.00 | 0.00 | 0.00 | 76 | 1009.6 |
| 20260508024750 | 6 | 214 | 1.6 | 1.6 | 0.00 | 0.00 | 0.00 | 78 | 1009.8 |
| 20260508024247 | 6 | 207 | 1.6 | 1.6 | 0.00 | 0.00 | 0.00 | 79 | 1009.7 |
| 20260508023744 | 6 | 211 | 0.0 | 0.0 | 0.00 | 0.00 | 0.00 | 81 | 1009.6 |
| 20260508023241 | 6 | 205 | 1.6 | 1.6 | 0.00 | 0.00 | 0.00 | 81 | 1009.8 |
| 20260508022737 | 6 | 212 | 1.6 | 1.6 | 0.00 | 0.00 | 0.00 | 81 | 1009.6 |
| 20260508022234 | 6 | 213 | 0.0 | 0.0 | 0.00 | 0.00 | 0.00 | 80 | 1009.6 |
| 20260508021731 | 5 | 212 | 0.0 | 0.0 | 0.00 | 0.00 | 0.00 | 80 | 1009.5 |
| 20260508021226 | 6 | 212 | 0.0 | 0.0 | 0.00 | 0.00 | 0.00 | 81 | 1009.5 |
| 20260508020723 | 6 | 212 | 0.0 | 0.0 | 0.00 | 0.00 | 0.00 | 80 | 1009.5 |
| 20260508020221 | 6 | 212 | 0.0 | 1.6 | 0.00 | 0.00 | 0.00 | 79 | 1009.4 |
| 20260508015718 | 5 | 212 | 0.0 | 0.0 | 0.00 | 0.00 | 0.00 | 79 | 1009.4 |
| 20260508015215 | 6 | 212 | 0.0 | 0.0 | 0.00 | 0.00 | 0.00 | 78 | 1009.3 |
| 20260508014711 | 6 | 212 | 0.0 | 0.0 | 0.00 | 0.00 | 0.00 | 77 | 1009.3 |
| 20260508014208 | 6 | 212 | 0.0 | 0.0 | 0.00 | 0.00 | 0.00 | 76 | 1009.5 |
| 20260508013704 | 6 | 212 | 0.0 | 0.0 | 0.00 | 0.00 | 0.00 | 75 | 1009.4 |
| 20260508013201 | 6 | 212 | 0.0 | 0.0 | 0.00 | 0.00 | 0.00 | 73 | 1009.2 |
| 20260508012658 | 7 | 212 | 0.0 | 0.0 | 0.00 | 0.00 | 0.00 | 73 | 1009.3 |
| 20260508012155 | 7 | 212 | 0.0 | 0.0 | 0.00 | 0.00 | 0.00 | 71 | 1009.1 |
| 20260508011653 | 7 | 212 | 0.0 | 0.0 | 0.00 | 0.00 | 0.00 | 71 | 1009.3 |
| 20260508011151 | 7 | 208 | 1.6 | 1.6 | 0.00 | 0.00 | 0.00 | 70 | 1009.0 |
| 20260508010647 | 7 | 205 | 1.6 | 1.6 | 0.00 | 0.00 | 0.00 | 69 | 1008.8 |
| 20260508010145 | 8 | 213 | 0.0 | 0.0 | 0.00 | 0.00 | 0.00 | 68 | 1008.9 |
| 20260508005642 | 8 | 213 | 0.0 | 0.0 | 0.00 | 0.00 | 0.00 | 67 | 1009.0 |
| 20260508005139 | 8 | 213 | 0.0 | 0.0 | 0.00 | 0.00 | 0.00 | 67 | 1009.0 |
| 20260508004634 | 8 | 213 | 0.0 | 0.0 | 0.00 | 0.00 | 0.00 | 65 | 1009.0 |
| 20260508004131 | 8 | 213 | 0.0 | 0.0 | 0.00 | 0.00 | 0.00 | 63 | 1009.0 |
| 20260508003627 | 9 | 212 | 0.0 | 0.0 | 0.00 | 0.00 | 0.00 | 64 | 1009.1 |
| 20260508003125 | 10 | 212 | 0.0 | 1.6 | 0.00 | 0.00 | 0.00 | 64 | 1009.0 |
| 20260508002621 | 10 | 202 | 1.6 | 1.6 | 0.00 | 0.00 | 0.00 | 64 | 1009.0 |
| 20260508002119 | 10 | 214 | 0.0 | 0.0 | 0.00 | 0.00 | 0.00 | 54 | 1008.8 |
| 20260508001614 | 10 | 215 | 0.0 | 0.0 | 0.00 | 0.00 | 0.00 | 54 | 1009.0 |
| 20260508001111 | 11 | 216 | 0.0 | 0.0 | 0.00 | 0.00 | 0.00 | 53 | 1008.9 |
| 20260508000606 | 11 | 220 | 0.0 | 0.0 | 0.00 | 0.00 | 0.00 | 51 | 1008.9 |
| 20260508000104 | 11 | 226 | 1.6 | 1.6 | 0.00 | 0.00 | 0.00 | 50 | 1008.7 |
| 20260507235601 | 11 | 267 | 0.0 | 0.0 | 0.00 | 0.00 | 0.00 | 49 | 1008.7 |
| 20260507235058 | 11 | 314 | 4.8 | 8.0 | 0.00 | 0.00 | 0.00 | 48 | 1008.7 |
| 20260507234554 | 11 | 217 | 1.6 | 3.2 | 0.00 | 0.00 | 0.00 | 49 | 1008.6 |
| 20260507234051 | 11 | 213 | 1.6 | 1.6 | 0.00 | 0.00 | 0.00 | 48 | 1008.7 |
| 20260507233548 | 11 | 156 | 1.6 | 3.2 | 0.00 | 0.00 | 0.00 | 49 | 1008.7 |
| 20260507233046 | 11 | 221 | 3.2 | 4.8 | 0.00 | 0.00 | 0.00 | 49 | 1008.8 |
| 20260507232542 | 11 | 224 | 3.2 | 3.2 | 0.00 | 0.00 | 0.00 | 47 | 1008.6 |
| 20260507232040 | 12 | 291 | 3.2 | 4.8 | 0.00 | 0.00 | 0.00 | 46 | 1008.7 |
| 20260507231536 | 12 | 231 | 3.2 | 3.2 | 0.00 | 0.00 | 0.00 | 46 | 1008.9 |
| 20260507231033 | 12 | 201 | 0.0 | 1.6 | 0.00 | 0.00 | 0.00 | 48 | 1008.8 |
| 20260507230530 | 12 | 227 | 0.0 | 1.6 | 0.00 | 0.00 | 0.00 | 47 | 1008.9 |
| 20260507230027 | 12 | 342 | 3.2 | 4.8 | 0.00 | 0.00 | 0.00 | 47 | 1009.1 |
| 20260507225521 | 12 | 255 | 4.8 | 4.8 | 0.00 | 0.00 | 0.00 | 47 | 1009.1 |
| 20260507225018 | 12 | 340 | 1.6 | 1.6 | 0.00 | 0.00 | 0.00 | 47 | 1009.0 |
| 20260507224514 | 12 | 216 | 0.0 | 0.0 | 0.00 | 0.00 | 0.00 | 46 | 1009.0 |
| 20260507224011 | 12 | 44 | 6.4 | 8.0 | 0.00 | 0.00 | 0.00 | 45 | 1008.9 |
| 20260507223507 | 12 | 256 | 1.6 | 4.8 | 0.00 | 0.00 | 0.00 | 46 | 1009.1 |
| 20260507223004 | 12 | 92 | 0.0 | 1.6 | 0.00 | 0.00 | 0.00 | 46 | 1008.9 |
| 20260507222501 | 12 | 209 | 1.6 | 3.2 | 0.00 | 0.00 | 0.00 | 46 | 1009.0 |
| 20260507221957 | 12 | 318 | 4.8 | 9.7 | 0.00 | 0.00 | 0.00 | 45 | 1009.3 |
| 20260507221454 | 12 | 288 | 8.0 | 11.3 | 0.00 | 0.00 | 0.00 | 45 | 1009.1 |
| 20260507220950 | 12 | 218 | 0.0 | 0.0 | 0.00 | 0.00 | 0.00 | 46 | 1008.9 |
| 20260507220448 | 13 | 251 | 9.7 | 14.5 | 0.00 | 0.00 | 0.00 | 44 | 1008.9 |
| 20260507215944 | 13 | 209 | 1.6 | 3.2 | 0.00 | 0.00 | 0.00 | 46 | 1009.0 |
| 20260507215441 | 13 | 266 | 1.6 | 3.2 | 0.00 | 0.00 | 0.00 | 45 | 1009.2 |
| 20260507214939 | 13 | 14 | 3.2 | 4.8 | 0.00 | 0.00 | 0.00 | 44 | 1009.1 |
| 20260507214436 | 13 | 320 | 3.2 | 3.2 | 0.00 | 0.00 | 0.00 | 44 | 1009.0 |
| 20260507213932 | 13 | 104 | 3.2 | 3.2 | 0.00 | 0.00 | 0.00 | 42 | 1008.8 |
| 20260507213428 | 13 | 230 | 1.6 | 1.6 | 0.00 | 0.00 | 0.00 | 44 | 1008.7 |
| 20260507212925 | 13 | 288 | 3.2 | 3.2 | 0.00 | 0.00 | 0.00 | 46 | 1008.9 |
| 20260507212421 | 13 | 48 | 4.8 | 8.0 | 0.00 | 0.00 | 0.00 | 46 | 1009.1 |
| 20260507211918 | 13 | 259 | 1.6 | 1.6 | 0.00 | 0.00 | 0.00 | 45 | 1008.8 |
| 20260507211415 | 13 | 220 | 3.2 | 3.2 | 0.00 | 0.00 | 0.00 | 47 | 1008.7 |
| 20260507210911 | 13 | 52 | 4.8 | 11.3 | 0.00 | 0.00 | 0.00 | 49 | 1008.8 |
| 20260507210408 | 14 | 249 | 1.6 | 1.6 | 0.00 | 0.00 | 0.00 | 50 | 1008.9 |
| 20260507205905 | 13 | 231 | 3.2 | 3.2 | 0.00 | 0.00 | 0.00 | 52 | 1008.7 |
| 20260507205403 | 13 | 260 | 8.0 | 14.5 | 0.00 | 0.00 | 0.00 | 51 | 1008.9 |
| 20260507204859 | 13 | 273 | 1.6 | 1.6 | 0.00 | 0.00 | 0.00 | 56 | 1008.7 |
| 20260507204355 | 13 | 256 | 1.6 | 1.6 | 0.00 | 0.00 | 0.00 | 54 | 1008.9 |
| 20260507203853 | 13 | 29 | 4.8 | 4.8 | 0.00 | 0.00 | 0.00 | 53 | 1008.5 |
| 20260507203351 | 13 | 214 | 4.8 | 4.8 | 0.00 | 0.00 | 0.00 | 53 | 1008.5 |
| 20260507202846 | 12 | 221 | 1.6 | 1.6 | 0.00 | 0.00 | 0.00 | 58 | 1008.7 |
| 20260507202343 | 11 | 202 | 0.0 | 0.0 | 0.00 | 0.00 | 0.00 | 59 | 1008.6 |
| 20260507201838 | 11 | 43 | 3.2 | 3.2 | 0.00 | 0.00 | 0.00 | 57 | 1008.8 |
| 20260507201334 | 12 | 32 | 4.8 | 4.8 | 0.00 | 0.00 | 0.00 | 57 | 1008.8 |
| 20260507200831 | 12 | 240 | 1.6 | 1.6 | 0.00 | 0.00 | 0.00 | 56 | 1008.7 |
| 20260507200327 | 12 | 342 | 4.8 | 8.0 | 0.00 | 0.00 | 0.00 | 57 | 1008.6 |
| 20260507195823 | 12 | 355 | 3.2 | 4.8 | 0.00 | 0.00 | 0.00 | 58 | 1008.9 |
| 20260507195321 | 12 | 290 | 1.6 | 3.2 | 0.00 | 0.00 | 0.00 | 57 | 1008.6 |
| 20260507194818 | 12 | 61 | 3.2 | 3.2 | 0.00 | 0.00 | 0.00 | 58 | 1008.7 |
| 20260507194314 | 12 | 252 | 3.2 | 3.2 | 0.00 | 0.00 | 0.00 | 57 | 1008.8 |
| 20260507193810 | 12 | 309 | 3.2 | 3.2 | 0.00 | 0.00 | 0.00 | 56 | 1009.0 |
| 20260507193308 | 12 | 298 | 8.0 | 11.3 | 0.00 | 0.00 | 0.00 | 55 | 1008.8 |
| 20260507192803 | 12 | 236 | 4.8 | 8.0 | 0.00 | 0.00 | 0.00 | 54 | 1008.6 |
| 20260507192300 | 12 | 232 | 3.2 | 3.2 | 0.00 | 0.00 | 0.00 | 55 | 1008.8 |
| 20260507191756 | 12 | 238 | 3.2 | 4.8 | 0.00 | 0.00 | 0.00 | 56 | 1008.9 |
| 20260507191253 | 13 | 213 | 0.0 | 1.6 | 0.00 | 0.00 | 0.00 | 55 | 1008.7 |
| 20260507190750 | 13 | 211 | 4.8 | 4.8 | 0.00 | 0.00 | 0.00 | 53 | 1008.7 |
| 20260507190249 | 13 | 13 | 3.2 | 4.8 | 0.00 | 0.00 | 0.00 | 55 | 1008.8 |
| 20260507185747 | 13 | 112 | 1.6 | 4.8 | 0.00 | 0.00 | 0.00 | 56 | 1008.8 |
| 20260507185243 | 13 | 12 | 4.8 | 4.8 | 0.00 | 0.00 | 0.00 | 56 | 1008.8 |
| 20260507184741 | 13 | 229 | 1.6 | 3.2 | 0.00 | 0.00 | 0.00 | 54 | 1009.1 |
| 20260507184239 | 12 | 229 | 4.8 | 8.0 | 0.00 | 0.00 | 0.00 | 56 | 1008.9 |
| 20260507183735 | 13 | 294 | 3.2 | 3.2 | 0.00 | 0.00 | 0.00 | 54 | 1008.9 |
| 20260507183232 | 13 | 18 | 4.8 | 8.0 | 0.00 | 0.00 | 0.00 | 57 | 1009.0 |
| 20260507182730 | 13 | 169 | 1.6 | 3.2 | 0.00 | 0.00 | 0.00 | 56 | 1009.1 |
| 20260507182224 | 13 | 190 | 1.6 | 1.6 | 0.00 | 0.00 | 0.00 | 54 | 1008.9 |
| 20260507181721 | 12 | 209 | 3.2 | 3.2 | 0.00 | 0.00 | 0.00 | 55 | 1009.0 |
| 20260507181218 | 13 | 271 | 1.6 | 3.2 | 0.00 | 0.00 | 0.00 | 56 | 1009.1 |
| 20260507180714 | 13 | 272 | 4.8 | 9.7 | 0.00 | 0.00 | 0.00 | 55 | 1008.8 |
| 20260507180212 | 12 | 306 | 1.6 | 1.6 | 0.00 | 0.00 | 0.00 | 58 | 1009.0 |
| 20260507175707 | 12 | 207 | 0.0 | 1.6 | 0.00 | 0.00 | 0.00 | 55 | 1009.1 |
| 20260507175204 | 13 | 332 | 3.2 | 8.0 | 0.00 | 0.00 | 0.00 | 55 | 1009.0 |
| 20260507174702 | 13 | 0 | 1.6 | 3.2 | 0.00 | 0.00 | 0.00 | 52 | 1009.0 |
| 20260507174159 | 13 | 22 | 6.4 | 9.7 | 0.00 | 0.00 | 0.00 | 53 | 1009.0 |
| 20260507173657 | 13 | 232 | 6.4 | 9.7 | 0.00 | 0.00 | 0.00 | 53 | 1009.1 |
| 20260507173153 | 13 | 278 | 8.0 | 11.3 | 0.00 | 0.00 | 0.00 | 53 | 1009.2 |
| 20260507172650 | 13 | 230 | 6.4 | 11.3 | 0.00 | 0.00 | 0.00 | 48 | 1009.0 |
| 20260507172147 | 13 | 16 | 6.4 | 8.0 | 0.00 | 0.00 | 0.00 | 48 | 1009.3 |
| 20260507171647 | 12 | 254 | 6.4 | 8.0 | 0.00 | 0.00 | 0.00 | 47 | 1009.3 |
| 20260507171144 | 13 | 243 | 4.8 | 8.0 | 0.00 | 0.00 | 0.00 | 48 | 1009.1 |
| 20260507170641 | 13 | 214 | 4.8 | 8.0 | 0.00 | 0.00 | 0.00 | 50 | 1009.1 |
| 20260507170139 | 14 | 290 | 4.8 | 4.8 | 0.00 | 0.00 | 0.00 | 51 | 1009.2 |
| 20260507165634 | 13 | 219 | 1.6 | 1.6 | 0.00 | 0.00 | 0.00 | 49 | 1008.8 |
| 20260507165131 | 13 | 20 | 8.0 | 11.3 | 0.00 | 0.00 | 0.00 | 49 | 1009.0 |
| 20260507164626 | 13 | 266 | 1.6 | 3.2 | 0.00 | 0.00 | 0.00 | 49 | 1009.0 |
| 20260507164124 | 13 | 222 | 3.2 | 3.2 | 0.00 | 0.00 | 0.00 | 49 | 1009.1 |
| 20260507163621 | 13 | 296 | 3.2 | 4.8 | 0.00 | 0.00 | 0.00 | 50 | 1009.2 |
| 20260507163119 | 13 | 255 | 1.6 | 1.6 | 0.00 | 0.00 | 0.00 | 50 | 1009.5 |
| 20260507162614 | 13 | 22 | 8.0 | 9.7 | 0.00 | 0.00 | 0.00 | 48 | 1009.6 |
| 20260507162111 | 13 | 346 | 3.2 | 3.2 | 0.00 | 0.00 | 0.00 | 52 | 1009.3 |
| 20260507161607 | 13 | 306 | 1.6 | 1.6 | 0.00 | 0.00 | 0.00 | 55 | 1009.5 |
| 20260507161104 | 13 | 88 | 6.4 | 8.0 | 0.00 | 0.00 | 0.00 | 54 | 1009.6 |
| 20260507160600 | 13 | 322 | 8.0 | 11.3 | 0.00 | 0.00 | 0.00 | 51 | 1009.9 |
| 20260507160056 | 13 | 359 | 3.2 | 3.2 | 0.00 | 0.00 | 0.00 | 53 | 1009.7 |
| 20260507155551 | 13 | 82 | 1.6 | 3.2 | 0.00 | 0.00 | 0.00 | 55 | 1009.7 |
| 20260507155049 | 13 | 49 | 6.4 | 9.7 | 0.00 | 0.00 | 0.00 | 57 | 1009.7 |
| 20260507154546 | 12 | 338 | 3.2 | 4.8 | 0.00 | 0.00 | 0.00 | 58 | 1009.6 |
| 20260507154043 | 13 | 321 | 1.6 | 3.2 | 0.00 | 0.00 | 0.00 | 56 | 1009.6 |
| 20260507153540 | 13 | 333 | 4.8 | 4.8 | 0.00 | 0.00 | 0.00 | 54 | 1009.7 |
| 20260507153036 | 12 | 224 | 1.6 | 1.6 | 0.00 | 0.00 | 0.00 | 55 | 1009.6 |
| 20260507152532 | 12 | 297 | 4.8 | 4.8 | 0.00 | 0.00 | 0.00 | 57 | 1009.7 |
| 20260507152029 | 12 | 230 | 1.6 | 1.6 | 0.00 | 0.00 | 0.00 | 59 | 1009.8 |
| 20260507151525 | 12 | 289 | 4.8 | 8.0 | 0.00 | 0.00 | 0.00 | 60 | 1009.9 |
| 20260507151022 | 11 | 215 | 0.0 | 0.0 | 0.00 | 0.00 | 0.00 | 60 | 1009.6 |
| 20260507150519 | 11 | 247 | 1.6 | 1.6 | 0.00 | 0.00 | 0.00 | 64 | 1009.7 |
| 20260507150016 | 11 | 207 | 1.6 | 3.2 | 0.00 | 0.00 | 0.00 | 62 | 1009.8 |
| 20260507145510 | 12 | 245 | 1.6 | 1.6 | 0.00 | 0.00 | 0.00 | 61 | 1009.8 |
| 20260507145008 | 13 | 281 | 1.6 | 1.6 | 0.00 | 0.00 | 0.00 | 58 | 1009.7 |
| 20260507144505 | 12 | 238 | 1.6 | 1.6 | 0.00 | 0.00 | 0.00 | 55 | 1009.6 |
| 20260507144002 | 13 | 197 | 1.6 | 3.2 | 0.00 | 0.00 | 0.00 | 53 | 1009.7 |
| 20260507143459 | 13 | 219 | 8.0 | 11.3 | 0.00 | 0.00 | 0.00 | 57 | 1009.8 |
| 20260507142956 | 13 | 211 | 1.6 | 1.6 | 0.00 | 0.00 | 0.00 | 57 | 1009.7 |
| 20260507142452 | 12 | 209 | 1.6 | 1.6 | 0.00 | 0.00 | 0.00 | 56 | 1009.9 |
| 20260507141949 | 12 | 290 | 4.8 | 8.0 | 0.00 | 0.00 | 0.00 | 57 | 1009.7 |
| 20260507141445 | 12 | 213 | 1.6 | 3.2 | 0.00 | 0.00 | 0.00 | 59 | 1009.9 |
| 20260507140942 | 12 | 217 | 1.6 | 3.2 | 0.00 | 0.00 | 0.00 | 65 | 1009.8 |
| 20260507140438 | 12 | 219 | 1.6 | 3.2 | 0.00 | 0.00 | 0.00 | 66 | 1009.9 |
| 20260507135936 | 12 | 205 | 1.6 | 1.6 | 0.00 | 0.00 | 0.00 | 66 | 1009.9 |
| 20260507135432 | 11 | 205 | 1.6 | 1.6 | 0.00 | 0.00 | 0.00 | 69 | 1010.1 |
| 20260507134930 | 10 | 211 | 0.0 | 0.0 | 0.00 | 0.00 | 0.00 | 71 | 1009.9 |
| 20260507134426 | 10 | 263 | 1.6 | 1.6 | 0.00 | 0.00 | 0.00 | 71 | 1010.1 |
| 20260507133922 | 10 | 234 | 3.2 | 3.2 | 0.00 | 0.00 | 0.00 | 74 | 1010.0 |
| 20260507133418 | 10 | 187 | 3.2 | 3.2 | 0.00 | 0.00 | 0.00 | 72 | 1010.3 |
| 20260507132917 | 10 | 210 | 0.0 | 0.0 | 0.00 | 0.00 | 0.00 | 74 | 1010.1 |
| 20260507132413 | 10 | 236 | 1.6 | 3.2 | 0.00 | 0.00 | 0.00 | 74 | 1010.2 |
| 20260507131910 | 10 | 222 | 1.6 | 1.6 | 0.00 | 0.00 | 0.00 | 77 | 1010.1 |
| 20260507131407 | 9 | 217 | 3.2 | 3.2 | 0.00 | 0.00 | 0.00 | 77 | 1010.0 |
| 20260507130904 | 9 | 251 | 0.0 | 0.0 | 0.00 | 0.00 | 0.00 | 77 | 1010.4 |
| 20260507130401 | 9 | 202 | 0.0 | 0.0 | 0.00 | 0.00 | 0.00 | 77 | 1010.3 |
| 20260507125900 | 9 | 214 | 0.0 | 0.0 | 0.00 | 0.00 | 0.00 | 77 | 1010.4 |
| 20260507125356 | 9 | 252 | 1.6 | 3.2 | 0.00 | 0.00 | 0.00 | 78 | 1010.1 |
| 20260507124854 | 8 | 202 | 0.0 | 1.6 | 0.00 | 0.00 | 0.00 | 78 | 1010.1 |
| 20260507124350 | 8 | 216 | 4.8 | 4.8 | 0.00 | 0.00 | 0.00 | 77 | 1010.2 |
| 20260507123849 | 8 | 213 | 1.6 | 1.6 | 0.00 | 0.00 | 0.00 | 77 | 1010.1 |
| 20260507123345 | 8 | 236 | 1.6 | 1.6 | 0.00 | 0.00 | 0.00 | 77 | 1009.8 |
| 20260507122842 | 8 | 223 | 0.0 | 0.0 | 0.00 | 0.00 | 0.00 | 78 | 1009.9 |
| 20260507122337 | 8 | 200 | 0.0 | 0.0 | 0.00 | 0.00 | 0.00 | 78 | 1010.1 |
| 20260507121834 | 7 | 218 | 0.0 | 0.0 | 0.00 | 0.00 | 0.00 | 79 | 1010.1 |
| 20260507121329 | 7 | 219 | 1.6 | 1.6 | 0.00 | 0.00 | 0.00 | 80 | 1009.9 |
| 20260507120826 | 7 | 214 | 3.2 | 3.2 | 0.00 | 0.00 | 0.00 | 80 | 1010.1 |
| 20260507120322 | 7 | 204 | 3.2 | 4.8 | 0.00 | 0.00 | 0.00 | 81 | 1010.2 |
| 20260507115819 | 7 | 198 | 1.6 | 1.6 | 0.00 | 0.00 | 0.00 | 82 | 1009.8 |